Philip, SD

1:13 PM MDT on July 26, 2016 (GMT -0600)
Philip

Weather History for KPHP - October, 2014

Change the Weather History Date:

Saturday, October 4, 2014

  Actual Average Record
Temperature  
Mean Temperature 46 °F 54 °F  
Max Temperature 65 °F 69 °F 96 °F (2011)
Min Temperature 27 °F 39 °F 21 °F (1999)
Degree Days  
Heating Degree Days 19 12  
Month to date heating degree days 61 44  
Since 1 July heating degree days 252 230  
Cooling Degree Days 0 0  
Month to date cooling degree days 0 0  
Year to date cooling degree days 649 814  
Moisture  
Dew Point 32 °F    
Average Humidity 58    
Maximum Humidity 85    
Minimum Humidity 30    
Precipitation  
Precipitation 0.00 in 0.06 in 1.56 in (1998)
Month to date precipitation T 0.22  
Year to date precipitation 15.70 15.09  
Sea Level Pressure  
Sea Level Pressure 29.96 in    
Wind  
Wind Speed 5 mph (West)    
Max Wind Speed 14 mph    
Max Gust Speed 18 mph    
Visibility 10 miles    
Events      
T = Trace of Precipitation, MM = Missing Value Source: NWS Daily Summary

Daily Weather History Graph

Daily Weather History Graph

Search for Another Location

Airport or City:

Trip Planner

Search our weather history database for the weather conditions in past years. The results will help you decide how hot, cold, wet, or windy it might be!

Date:

Astronomy

Oct. 04, 2014 Rise Set
Actual Time 6:47 AM MDT 6:21 PM MDT
Civil Twilight 6:18 AM MDT 6:50 PM MDT
Nautical Twilight 5:45 AM MDT 7:23 PM MDT
Astronomical Twilight 5:11 AM MDT 7:57 PM MDT
Moon 4:07 PM MDT (10/4) 2:09 AM MDT (10/4)
Length of Visible Light 12h 31m
Length of Day
11h 34m
Waxing Gibbous, 81% of the Moon is Illuminated
Oct 4
Waxing Gibbous
Oct 8
Full
Oct 15
Last Quarter
Oct 23
New
Oct 30
First Quarter

Hourly Weather History & Observations

Time (MDT) Temp. Windchill Dew Point Humidity Pressure Visibility Wind Dir Wind Speed Gust Speed Precip Events Conditions
12:55 AM 28.0 °F 20.0 °F 24.1 °F 85% 30.19 in 10.0 mi WSW 8.1 mph - N/A   Clear
1:55 AM 28.0 °F 22.8 °F 24.1 °F 85% 30.17 in 10.0 mi West 4.6 mph - N/A   Clear
2:55 AM 28.0 °F 24.2 °F 23.0 °F 81% 30.15 in 10.0 mi WNW 3.5 mph - N/A   Clear
3:55 AM 30.0 °F 24.1 °F 26.1 °F 85% 30.14 in 10.0 mi WSW 5.8 mph - N/A   Clear
4:55 AM 32.0 °F 27.5 °F 27.0 °F 82% 30.12 in 10.0 mi West 4.6 mph - N/A   Scattered Clouds
5:55 AM 33.1 °F - 28.0 °F 82% 30.10 in 10.0 mi Calm Calm - N/A   Partly Cloudy
6:55 AM 34.0 °F - 28.9 °F 82% 30.08 in 10.0 mi Calm Calm - N/A   Mostly Cloudy
7:55 AM 36.0 °F - 30.9 °F 82% 30.08 in 10.0 mi Calm Calm - N/A   Overcast
8:55 AM 39.0 °F - 30.9 °F 73% 30.07 in 10.0 mi Calm Calm - N/A   Overcast
9:55 AM 43.0 °F 41.3 °F 30.9 °F 62% 30.05 in 10.0 mi SSE 3.5 mph - N/A   Overcast
10:55 AM 48.0 °F - 32.0 °F 54% 30.02 in 10.0 mi Calm Calm - N/A   Overcast
11:55 AM 55.0 °F - 32.0 °F 42% 29.97 in 10.0 mi Calm Calm - N/A   Scattered Clouds
12:55 PM 57.9 °F - 28.9 °F 33% 29.94 in 10.0 mi SSW 4.6 mph - N/A   Partly Cloudy
1:55 PM 63.0 °F - 30.0 °F 29% 29.89 in 10.0 mi SW 5.8 mph - N/A   Clear
2:55 PM 63.0 °F - 30.9 °F 30% 29.87 in 10.0 mi NW 9.2 mph - N/A   Overcast
3:55 PM 64.0 °F - 33.1 °F 31% 29.84 in 10.0 mi NW 8.1 mph - N/A   Overcast
4:55 PM 64.0 °F - 36.0 °F 35% 29.82 in 10.0 mi North 9.2 mph - N/A   Overcast
5:55 PM 61.0 °F - 37.0 °F 41% 29.81 in 10.0 mi NW 5.8 mph - N/A   Overcast
6:55 PM 57.0 °F - 39.0 °F 51% 29.82 in 10.0 mi WNW 5.8 mph - N/A   Overcast
7:55 PM 50.0 °F - 39.9 °F 68% 29.82 in 10.0 mi WSW 4.6 mph - N/A   Scattered Clouds
8:55 PM 52.0 °F - 41.0 °F 66% 29.81 in 10.0 mi West 8.1 mph - N/A   Overcast
9:55 PM 55.0 °F - 39.9 °F 57% 29.81 in 10.0 mi WNW 8.1 mph - N/A   Mostly Cloudy
10:55 PM 50.0 °F - 41.0 °F 71% 29.80 in 10.0 mi West 5.8 mph - N/A   Mostly Cloudy
11:55 PM 50.0 °F - 42.1 °F 74% 29.79 in 10.0 mi West 9.2 mph - N/A   Partly Cloudy